Time,TemperatureF,DewpointF,PressureIn,WindDirection,WindDirectionDegrees,WindSpeedMPH,WindSpeedGustMPH,Humidity,HourlyPrecipIn,Conditions,Clouds,dailyrainin,SoftwareType,DateUTC
2014-08-28 00:00:00,63.0,62.4,30.09,ENE,71,0.0,0.0,98,0.00,,,0.00,Wunderground v.1.15,2014-08-28 05:00:00,
2014-08-28 00:02:00,63.0,62.4,30.09,ENE,71,0.0,0.0,98,0.00,,,0.00,Wunderground v.1.15,2014-08-28 05:02:00,
2014-08-28 00:04:00,63.0,62.4,30.09,ENE,71,0.0,0.0,98,0.00,,,0.00,Wunderground v.1.15,2014-08-28 05:04:00,
2014-08-28 00:08:00,62.9,62.3,30.09,ENE,71,0.0,0.0,98,0.00,,,0.00,Wunderground v.1.15,2014-08-28 05:08:00,
2014-08-28 00:10:00,62.9,62.3,30.09,ENE,71,0.0,0.0,98,0.00,,,0.00,Wunderground v.1.15,2014-08-28 05:10:00,
2014-08-28 00:12:00,62.9,62.3,30.09,ENE,71,0.0,0.0,98,0.00,,,0.00,Wunderground v.1.15,2014-08-28 05:12:00,
2014-08-28 00:14:00,62.9,62.3,30.09,ENE,71,0.0,0.0,98,0.00,,,0.00,Wunderground v.1.15,2014-08-28 05:14:00,
2014-08-28 00:20:00,62.9,62.6,30.08,ENE,71,0.0,0.0,99,0.00,,,0.00,Wunderground v.1.15,2014-08-28 05:20:00,
2014-08-28 00:22:00,62.9,62.6,30.09,ENE,71,0.0,0.0,99,0.00,,,0.00,Wunderground v.1.15,2014-08-28 05:22:00,
2014-08-28 00:24:00,62.9,62.6,30.09,ENE,71,0.0,0.0,99,0.00,,,0.00,Wunderground v.1.15,2014-08-28 05:24:00,
2014-08-28 00:26:00,62.9,62.6,30.09,ENE,71,0.0,0.0,99,0.00,,,0.00,Wunderground v.1.15,2014-08-28 05:26:00,
2014-08-28 00:28:00,62.8,62.5,30.09,ENE,71,0.0,0.0,99,0.00,,,0.00,Wunderground v.1.15,2014-08-28 05:28:00,
2014-08-28 00:34:00,62.8,62.5,30.09,ENE,71,0.0,0.0,99,0.00,,,0.00,Wunderground v.1.15,2014-08-28 05:34:00,
2014-08-28 00:36:00,62.8,62.5,30.09,ENE,71,0.0,0.0,99,0.00,,,0.00,Wunderground v.1.15,2014-08-28 05:36:00,
2014-08-28 00:38:00,62.8,62.5,30.09,ENE,71,0.0,0.0,99,0.00,,,0.00,Wunderground v.1.15,2014-08-28 05:38:00,
2014-08-28 00:44:00,62.8,62.5,30.09,ENE,71,0.0,1.0,99,0.00,,,0.00,Wunderground v.1.15,2014-08-28 05:44:00,
2014-08-28 00:46:00,62.8,62.5,30.09,ENE,71,0.0,1.0,99,0.00,,,0.00,Wunderground v.1.15,2014-08-28 05:46:00,
2014-08-28 00:48:00,62.8,62.5,30.09,ENE,71,0.0,1.0,99,0.00,,,0.00,Wunderground v.1.15,2014-08-28 05:48:00,
2014-08-28 00:50:00,62.8,62.5,30.09,ENE,71,0.0,0.0,99,0.00,,,0.00,Wunderground v.1.15,2014-08-28 05:50:00,
2014-08-28 00:54:00,62.9,62.6,30.09,ENE,71,0.0,0.0,99,0.00,,,0.00,Wunderground v.1.15,2014-08-28 05:54:00,
2014-08-28 00:56:00,62.9,62.6,30.09,ENE,69,0.0,1.0,99,0.00,,,0.00,Wunderground v.1.15,2014-08-28 05:56:00,
2014-08-28 01:02:00,63.0,62.7,30.09,East,79,0.0,0.0,99,0.00,,,0.00,Wunderground v.1.15,2014-08-28 06:02:00,
2014-08-28 01:08:00,63.0,62.7,30.10,East,79,0.0,0.0,99,0.00,,,0.00,Wunderground v.1.15,2014-08-28 06:08:00,
2014-08-28 01:10:00,63.0,62.7,30.09,East,79,0.0,0.0,99,0.00,,,0.00,Wunderground v.1.15,2014-08-28 06:10:00,
2014-08-28 01:12:00,63.1,62.8,30.09,East,79,0.0,0.0,99,0.00,,,0.00,Wunderground v.1.15,2014-08-28 06:12:00,
2014-08-28 01:16:00,63.1,62.8,30.09,East,79,0.0,0.0,99,0.00,,,0.00,Wunderground v.1.15,2014-08-28 06:16:00,
2014-08-28 01:18:00,63.1,62.8,30.09,East,79,0.0,0.0,99,0.00,,,0.00,Wunderground v.1.15,2014-08-28 06:18:00,
2014-08-28 01:20:00,63.1,62.8,30.09,East,79,0.0,0.0,99,0.00,,,0.00,Wunderground v.1.15,2014-08-28 06:20:00,
2014-08-28 01:24:00,63.2,62.9,30.09,East,79,0.0,2.0,99,0.00,,,0.00,Wunderground v.1.15,2014-08-28 06:24:00,
2014-08-28 01:26:00,63.2,62.9,30.09,East,79,0.0,2.0,99,0.00,,,0.00,Wunderground v.1.15,2014-08-28 06:26:00,
2014-08-28 01:28:00,63.2,62.9,30.09,East,79,0.0,2.0,99,0.00,,,0.00,Wunderground v.1.15,2014-08-28 06:28:00,
2014-08-28 01:30:00,63.2,62.9,30.09,East,79,0.0,0.0,99,0.00,,,0.00,Wunderground v.1.15,2014-08-28 06:30:00,
2014-08-28 01:36:00,63.3,63.0,30.09,East,79,0.0,0.0,99,0.00,,,0.00,Wunderground v.1.15,2014-08-28 06:36:00,
2014-08-28 01:38:00,63.3,63.0,30.09,East,79,0.0,1.0,99,0.00,,,0.00,Wunderground v.1.15,2014-08-28 06:38:00,
2014-08-28 01:40:00,63.3,63.0,30.09,East,80,0.0,0.0,99,0.00,,,0.00,Wunderground v.1.15,2014-08-28 06:40:00,
2014-08-28 01:42:00,63.3,63.0,30.09,East,79,0.0,0.0,99,0.00,,,0.00,Wunderground v.1.15,2014-08-28 06:42:00,
2014-08-28 01:44:00,63.3,63.0,30.09,East,80,0.0,0.0,99,0.00,,,0.00,Wunderground v.1.15,2014-08-28 06:44:00,
2014-08-28 01:48:00,63.3,63.0,30.09,East,80,0.0,1.0,99,0.00,,,0.00,Wunderground v.1.15,2014-08-28 06:48:00,
2014-08-28 01:52:00,63.4,63.1,30.09,East,79,0.0,0.0,99,0.00,,,0.00,Wunderground v.1.15,2014-08-28 06:52:00,
2014-08-28 01:54:00,63.4,63.1,30.09,East,79,0.0,0.0,99,0.00,,,0.00,Wunderground v.1.15,2014-08-28 06:54:00,
2014-08-28 01:56:00,63.4,63.1,30.09,East,80,0.0,0.0,99,0.00,,,0.00,Wunderground v.1.15,2014-08-28 06:56:00,
2014-08-28 01:58:00,63.4,63.1,30.09,East,79,0.0,0.0,99,0.00,,,0.00,Wunderground v.1.15,2014-08-28 06:58:00,
2014-08-28 02:04:00,63.4,63.1,30.09,East,79,0.0,0.0,99,0.00,,,0.00,Wunderground v.1.15,2014-08-28 07:04:00,
2014-08-28 02:08:00,63.4,63.1,30.09,East,79,0.0,0.0,99,0.00,,,0.00,Wunderground v.1.15,2014-08-28 07:08:00,
2014-08-28 02:10:00,63.4,63.1,30.09,East,80,0.0,2.0,99,0.00,,,0.00,Wunderground v.1.15,2014-08-28 07:10:00,
2014-08-28 02:14:00,63.4,63.1,30.08,East,79,0.0,2.0,99,0.00,,,0.00,Wunderground v.1.15,2014-08-28 07:14:00,
2014-08-28 02:16:00,63.4,63.1,30.09,East,79,0.0,2.0,99,0.00,,,0.00,Wunderground v.1.15,2014-08-28 07:16:00,
2014-08-28 02:18:00,63.4,63.1,30.09,ENE,78,0.0,2.0,99,0.00,,,0.00,Wunderground v.1.15,2014-08-28 07:18:00,
2014-08-28 02:20:00,63.4,62.8,30.09,East,80,0.0,0.0,98,0.00,,,0.00,Wunderground v.1.15,2014-08-28 07:20:00,
2014-08-28 02:22:00,63.4,62.8,30.09,ENE,76,0.0,0.0,98,0.00,,,0.00,Wunderground v.1.15,2014-08-28 07:22:00,
2014-08-28 02:26:00,63.3,62.7,30.09,ENE,76,0.0,0.0,98,0.00,,,0.00,Wunderground v.1.15,2014-08-28 07:26:00,
2014-08-28 02:28:00,63.3,62.7,30.09,ENE,76,0.0,0.0,98,0.00,,,0.00,Wunderground v.1.15,2014-08-28 07:28:00,
2014-08-28 02:32:00,63.3,62.7,30.09,ENE,76,0.0,0.0,98,0.00,,,0.00,Wunderground v.1.15,2014-08-28 07:32:00,
2014-08-28 02:34:00,63.3,62.7,30.09,ENE,76,0.0,0.0,98,0.00,,,0.00,Wunderground v.1.15,2014-08-28 07:34:00,
2014-08-28 02:38:00,63.3,62.7,30.09,ENE,73,0.0,1.0,98,0.00,,,0.00,Wunderground v.1.15,2014-08-28 07:38:00,
2014-08-28 02:40:00,63.3,62.7,30.09,ENE,73,0.0,0.0,98,0.00,,,0.00,Wunderground v.1.15,2014-08-28 07:40:00,
2014-08-28 02:44:00,63.2,62.6,30.09,ENE,73,0.0,1.0,98,0.00,,,0.00,Wunderground v.1.15,2014-08-28 07:44:00,
2014-08-28 02:46:00,63.2,62.6,30.09,ENE,73,0.0,1.0,98,0.00,,,0.00,Wunderground v.1.15,2014-08-28 07:46:00,
2014-08-28 02:50:00,63.2,62.6,30.09,ENE,73,0.0,0.0,98,0.00,,,0.00,Wunderground v.1.15,2014-08-28 07:50:00,
2014-08-28 02:52:00,63.1,62.5,30.09,ENE,73,0.0,0.0,98,0.00,,,0.00,Wunderground v.1.15,2014-08-28 07:52:00,
2014-08-28 02:54:00,63.1,62.5,30.09,ENE,73,0.0,0.0,98,0.00,,,0.00,Wunderground v.1.15,2014-08-28 07:54:00,
2014-08-28 02:56:00,63.0,62.4,30.09,ENE,73,0.0,0.0,98,0.00,,,0.00,Wunderground v.1.15,2014-08-28 07:56:00,
2014-08-28 02:58:00,63.0,62.4,30.09,ENE,73,0.0,0.0,98,0.00,,,0.00,Wunderground v.1.15,2014-08-28 07:58:00,
2014-08-28 03:02:00,63.0,62.4,30.08,ENE,73,0.0,0.0,98,0.00,,,0.00,Wunderground v.1.15,2014-08-28 08:02:00,
2014-08-28 03:04:00,62.9,62.3,30.08,ENE,73,0.0,0.0,98,0.00,,,0.00,Wunderground v.1.15,2014-08-28 08:04:00,
2014-08-28 03:08:00,62.9,62.3,30.08,ENE,73,0.0,0.0,98,0.00,,,0.00,Wunderground v.1.15,2014-08-28 08:08:00,
2014-08-28 03:10:00,62.8,62.2,30.08,ENE,73,0.0,0.0,98,0.00,,,0.00,Wunderground v.1.15,2014-08-28 08:10:00,
2014-08-28 03:14:00,62.7,62.1,30.08,ENE,73,0.0,0.0,98,0.00,,,0.00,Wunderground v.1.15,2014-08-28 08:14:00,
2014-08-28 03:16:00,62.7,62.1,30.08,ENE,73,0.0,0.0,98,0.00,,,0.00,Wunderground v.1.15,2014-08-28 08:16:00,
2014-08-28 03:20:00,62.6,62.0,30.08,ENE,73,0.0,0.0,98,0.00,,,0.00,Wunderground v.1.15,2014-08-28 08:20:00,
2014-08-28 03:22:00,62.6,62.0,30.08,ENE,73,0.0,1.0,98,0.00,,,0.00,Wunderground v.1.15,2014-08-28 08:22:00,
2014-08-28 03:24:00,62.5,61.9,30.08,ENE,73,0.0,1.0,98,0.00,,,0.00,Wunderground v.1.15,2014-08-28 08:24:00,
2014-08-28 03:26:00,62.5,61.9,30.08,ENE,73,0.0,1.0,98,0.00,,,0.00,Wunderground v.1.15,2014-08-28 08:26:00,
2014-08-28 03:30:00,62.3,61.7,30.07,ENE,73,0.0,0.0,98,0.00,,,0.00,Wunderground v.1.15,2014-08-28 08:30:00,
2014-08-28 03:32:00,62.3,61.7,30.07,ENE,73,0.0,0.0,98,0.00,,,0.00,Wunderground v.1.15,2014-08-28 08:32:00,
2014-08-28 03:34:00,62.2,61.6,30.07,ENE,73,0.0,0.0,98,0.00,,,0.00,Wunderground v.1.15,2014-08-28 08:34:00,
2014-08-28 03:36:00,62.1,61.5,30.07,ENE,73,0.0,0.0,98,0.00,,,0.00,Wunderground v.1.15,2014-08-28 08:36:00,
2014-08-28 03:38:00,62.1,61.5,30.07,ENE,73,0.0,0.0,98,0.00,,,0.00,Wunderground v.1.15,2014-08-28 08:38:00,
2014-08-28 03:42:00,61.9,61.3,30.07,ENE,73,0.0,0.0,98,0.00,,,0.00,Wunderground v.1.15,2014-08-28 08:42:00,
2014-08-28 03:44:00,61.9,61.3,30.07,ENE,73,0.0,0.0,98,0.00,,,0.00,Wunderground v.1.15,2014-08-28 08:44:00,
2014-08-28 03:46:00,61.8,61.2,30.07,ENE,73,0.0,0.0,98,0.00,,,0.00,Wunderground v.1.15,2014-08-28 08:46:00,
2014-08-28 03:48:00,61.7,61.1,30.07,ENE,73,0.0,0.0,98,0.00,,,0.00,Wunderground v.1.15,2014-08-28 08:48:00,
2014-08-28 03:50:00,61.7,61.1,30.07,ENE,73,0.0,1.0,98,0.00,,,0.00,Wunderground v.1.15,2014-08-28 08:50:00,
2014-08-28 03:52:00,61.6,61.0,30.07,ENE,73,0.0,1.0,98,0.00,,,0.00,Wunderground v.1.15,2014-08-28 08:52:00,
2014-08-28 03:54:00,61.6,61.0,30.07,ENE,73,0.0,1.0,98,0.00,,,0.00,Wunderground v.1.15,2014-08-28 08:54:00,
2014-08-28 03:58:00,61.4,60.8,30.07,ENE,73,0.0,1.0,98,0.00,,,0.00,Wunderground v.1.15,2014-08-28 08:58:00,
2014-08-28 04:00:00,61.4,60.8,30.07,ENE,73,0.0,0.0,98,0.00,,,0.00,Wunderground v.1.15,2014-08-28 09:00:00,
2014-08-28 04:02:00,61.3,60.7,30.07,ENE,73,0.0,1.0,98,0.00,,,0.00,Wunderground v.1.15,2014-08-28 09:02:00,
2014-08-28 04:04:00,61.3,60.7,30.07,ENE,73,0.0,1.0,98,0.00,,,0.00,Wunderground v.1.15,2014-08-28 09:04:00,
2014-08-28 04:06:00,61.2,60.6,30.07,ENE,73,0.0,1.0,98,0.00,,,0.00,Wunderground v.1.15,2014-08-28 09:06:00,
2014-08-28 04:10:00,61.1,60.5,30.07,ENE,73,0.0,0.0,98,0.00,,,0.00,Wunderground v.1.15,2014-08-28 09:10:00,
2014-08-28 04:12:00,61.0,60.4,30.07,ENE,73,0.0,0.0,98,0.00,,,0.00,Wunderground v.1.15,2014-08-28 09:12:00,
2014-08-28 04:14:00,61.0,60.4,30.07,ENE,76,0.0,1.0,98,0.00,,,0.00,Wunderground v.1.15,2014-08-28 09:14:00,
2014-08-28 04:18:00,60.9,60.3,30.07,ENE,76,0.0,1.0,98,0.00,,,0.00,Wunderground v.1.15,2014-08-28 09:18:00,
2014-08-28 04:20:00,60.8,60.2,30.07,ENE,76,0.0,0.0,98,0.00,,,0.00,Wunderground v.1.15,2014-08-28 09:20:00,
2014-08-28 04:22:00,60.8,60.2,30.07,ENE,76,0.0,0.0,98,0.00,,,0.00,Wunderground v.1.15,2014-08-28 09:22:00,
2014-08-28 04:24:00,60.8,60.2,30.07,ENE,76,0.0,0.0,98,0.00,,,0.00,Wunderground v.1.15,2014-08-28 09:24:00,
2014-08-28 04:26:00,60.7,60.1,30.07,ENE,76,0.0,0.0,98,0.00,,,0.00,Wunderground v.1.15,2014-08-28 09:26:00,
2014-08-28 04:28:00,60.7,60.1,30.07,ENE,76,0.0,0.0,98,0.00,,,0.00,Wunderground v.1.15,2014-08-28 09:28:00,
2014-08-28 04:30:00,60.6,60.0,30.07,ENE,76,0.0,0.0,98,0.00,,,0.00,Wunderground v.1.15,2014-08-28 09:30:00,
2014-08-28 04:34:00,60.6,60.0,30.07,ENE,76,0.0,0.0,98,0.00,,,0.00,Wunderground v.1.15,2014-08-28 09:34:00,
2014-08-28 04:36:00,60.5,59.9,30.07,ENE,76,0.0,0.0,98,0.00,,,0.00,Wunderground v.1.15,2014-08-28 09:36:00,
2014-08-28 04:42:00,60.4,59.8,30.07,ENE,76,0.0,0.0,98,0.00,,,0.00,Wunderground v.1.15,2014-08-28 09:42:00,
2014-08-28 04:44:00,60.3,59.7,30.07,ENE,76,0.0,0.0,98,0.00,,,0.00,Wunderground v.1.15,2014-08-28 09:44:00,
2014-08-28 04:48:00,60.3,59.7,30.07,ENE,76,0.0,1.0,98,0.00,,,0.00,Wunderground v.1.15,2014-08-28 09:48:00,
2014-08-28 04:50:00,60.2,59.6,30.07,ENE,76,0.0,0.0,98,0.00,,,0.00,Wunderground v.1.15,2014-08-28 09:50:00,
2014-08-28 04:52:00,60.2,59.6,30.07,ENE,76,0.0,0.0,98,0.00,,,0.00,Wunderground v.1.15,2014-08-28 09:52:00,
2014-08-28 04:56:00,60.1,59.5,30.07,ENE,76,0.0,0.0,98,0.00,,,0.00,Wunderground v.1.15,2014-08-28 09:56:00,
2014-08-28 04:58:00,60.1,59.5,30.07,ENE,76,0.0,0.0,98,0.00,,,0.00,Wunderground v.1.15,2014-08-28 09:58:00,
2014-08-28 05:00:00,60.1,59.5,30.07,ENE,76,0.0,0.0,98,0.00,,,0.00,Wunderground v.1.15,2014-08-28 10:00:00,
2014-08-28 05:02:00,60.0,59.4,30.07,ENE,76,0.0,0.0,98,0.00,,,0.00,Wunderground v.1.15,2014-08-28 10:02:00,
2014-08-28 05:04:00,60.0,59.4,30.07,ENE,76,0.0,0.0,98,0.00,,,0.00,Wunderground v.1.15,2014-08-28 10:04:00,
2014-08-28 05:06:00,60.0,59.4,30.07,ENE,76,0.0,0.0,98,0.00,,,0.00,Wunderground v.1.15,2014-08-28 10:06:00,
2014-08-28 05:08:00,59.9,59.3,30.07,ENE,76,0.0,0.0,98,0.00,,,0.00,Wunderground v.1.15,2014-08-28 10:08:00,
2014-08-28 05:10:00,59.9,59.3,30.07,ENE,76,0.0,0.0,98,0.00,,,0.00,Wunderground v.1.15,2014-08-28 10:10:00,
2014-08-28 05:12:00,59.9,59.3,30.07,ENE,76,0.0,0.0,98,0.00,,,0.00,Wunderground v.1.15,2014-08-28 10:12:00,
2014-08-28 05:14:00,59.9,59.3,30.07,ENE,76,0.0,0.0,98,0.00,,,0.00,Wunderground v.1.15,2014-08-28 10:14:00,
2014-08-28 05:16:00,59.8,59.2,30.07,ENE,76,0.0,0.0,98,0.00,,,0.00,Wunderground v.1.15,2014-08-28 10:16:00,
2014-08-28 05:18:00,59.8,59.2,30.07,ENE,76,0.0,0.0,98,0.00,,,0.00,Wunderground v.1.15,2014-08-28 10:18:00,
2014-08-28 05:20:00,59.8,59.2,30.07,ENE,76,0.0,0.0,98,0.00,,,0.00,Wunderground v.1.15,2014-08-28 10:20:00,
2014-08-28 05:24:00,59.7,59.1,30.07,ENE,76,0.0,1.0,98,0.00,,,0.00,Wunderground v.1.15,2014-08-28 10:24:00,
2014-08-28 05:26:00,59.7,59.1,30.07,ENE,76,0.0,1.0,98,0.00,,,0.00,Wunderground v.1.15,2014-08-28 10:26:00,
2014-08-28 05:30:00,59.6,59.0,30.07,ENE,76,0.0,0.0,98,0.00,,,0.00,Wunderground v.1.15,2014-08-28 10:30:00,
2014-08-28 05:32:00,59.6,59.0,30.08,ENE,76,0.0,0.0,98,0.00,,,0.00,Wunderground v.1.15,2014-08-28 10:32:00,
2014-08-28 05:34:00,59.5,58.9,30.07,ENE,76,0.0,0.0,98,0.00,,,0.00,Wunderground v.1.15,2014-08-28 10:34:00,